Location: Aufkirchen
(47.9603°N, 11.3653°E)
Time: 16:23:38
(UTC+01:00)

Vanguard 3 - Pass Details

Date: 27 November 2020
Orbit: 508 x 3262 km, 33.4° (Epoch: 16 January)

Event Time Altitude Azimuth Distance (km) Brightness Sun altitude
Rises 22:18:39 0° 224° (SW) 2,642 - -56.2°
Reaches altitude 10° 22:21:45 10° 193° (SSW) 1,909 - -56.6°
Maximum altitude 22:23:43 13° 165° (SSE) 1,865 - -56.8°
Drops below altitude 10° 22:25:58 10° 138° (SE) 2,258 - -57.1°
Sets 22:30:23 0° 112° (ESE) 3,675 - -57.6°
